Regional Weather Roundup
Issued by NWS Jackson, KY

Home | Current Version | Previous Version | Graphics & Text | Print | Product List | Glossary On
Versions: 1 2 3 4 5 6 7 8 9 10 11 12 13 14 15 16 17 18 19 20 21 22 23 24 25 26 27 28 29 30 31 32 33 34 35 36 37 38 39 40 41 42 43 44 45 46 47 48 49 50
000
ASUS43 KJKL 212219
RWRJKL

EAST KENTUCKY HOURLY WEATHER ROUNDUP
NATIONAL WEATHER SERVICE JACKSON KY
600 PM EDT THU AUG 21 2014

NOTE: "FAIR" INDICATES FEW OR NO CLOUDS BELOW 12,000 FEET WITH
NO SIGNIFICANT WEATHER AND/OR OBSTRUCTIONS TO VISIBILITY.

* THESE REPORTS ARE NOT UNDER NWS QUALITY CONTROL AND MAY NOT
  REPORT WEATHER SUCH AS PRECIPITATION AND FOG.

KYZ079-080-083-085-087-088-110-112-115-119-120-212300
...EASTERN KENTUCKY...

CITY           SKY/WX    TMP DP  RH WIND       PRES   REMARKS
JACKSON        CLOUDY    72  69  90 CALM      30.12S
LONDON         PTSUNNY   88  69  53 W9        30.11R HX  92
SOMERSET*      MOSUNNY   86  70  58 SW8       30.09F HX  90
MONTICELLO*    SUNNY     89  75  63 SW6       30.10F HX  98
WILLIAMSBURG*  MOSUNNY   86  73  66 W3        30.11  HX  93
MIDDLESBORO*   MOSUNNY   89  72  55 W6        30.11R HX  96
HARLAN APT*    CLOUDY    84  66  54 MISG      30.13R
BLACK MTN*       N/A     70  68  94 S1          N/A
PIKEVILLE APT* RAIN      68  68 100 CALM      30.14F
BIG SANDY*     CLOUDY    72  71  95 SW6       30.12R
MOREHEAD APT*  PTCLDY    79  73  83 S3        30.09S
ASHLAND*       PTSUNNY   79  70  73 CALM      30.04R
$$

KYZ035-036-041-042-044-050-067-078-099-212300
...CENTRAL KENTUCKY...

CITY           SKY/WX    TMP DP  RH WIND       PRES   REMARKS
MT STERLING*   PTSUNNY   79  73  83 S8        30.08S
FLEMING/MASON* MOSUNNY   81  73  78 SW8       30.06F
DANVILLE*      PTSUNNY   86  73  66 SW5       30.07F HX  93
RICHMOND*      PTSUNNY   84  72  65 W7        30.07S
LEXINGTON      MOSUNNY   87  74  64 W7        30.06S HX  95
FRANKFORT      MOSUNNY   86  73  65 SW12      30.03F HX  93
$$

KYZ091>093-OHZ055-061-077-WVZ005-015-034-035-042-212300
...SOUTHERN OHIO/WEST VIRGINIA...

CITY           SKY/WX    TMP DP  RH WIND       PRES   REMARKS
COVINGTON      PTSUNNY   83  73  72 S8        30.02F
COLUMBUS       CLOUDY    75  68  78 W7        30.02R
DAYTON         PTSUNNY   78  69  73 S8        30.04S
WILMINGTON     MOSUNNY   77  70  79 S8        30.04F
HUNTINGTON     PTSUNNY   76  73  91 S3        30.05F
CHARLESTON     CLOUDY    72  71  97 SE6       30.06F
PINEVILLE*     RAIN      74  73  98 MISG      30.20R
BECKLEY        LGT RAIN  70  67  90 N5        30.18R
BLUEFIELD      PTSUNNY   72  67  84 W6        30.20R
$$

VAZ002-007-008-TNZ017-027-036-066-071-212300
...SOUTHWEST VIRGINIA/EAST TENNESSEE...

CITY           SKY/WX    TMP DP  RH WIND       PRES   REMARKS
WISE*          CLOUDY    75  68  78 W6        30.22R THUNDER
JONESVILLE*      N/A     84  72  65 CALM      30.14R
ABINGDON*      PTSUNNY   82  71  68 W9        30.16S
BRISTOL        MOSUNNY   84  70  62 W8        30.13R
KNOXVILLE      MOSUNNY   88  71  57 SW7       30.09S HX  94
OAK RIDGE      MOSUNNY   89  71  55 VRB5      30.11S HX  95
CROSSVILLE     MOSUNNY   84  68  58 W5        30.17R
NASHVILLE      MOSUNNY   92  70  48 SW6       30.06S HX  97
$$

...KEY TO REMARKS...
VSB - VISIBILITY IN MILES
WCI - WIND CHILL INDEX
HX  - HEAT INDEX

$$


USA.gov is the U.S. government's official web portal to all federal, state and local government web resources and services.